CAPE
714 514 407 169 23 8 0 0 0 70 102 69 68 10 42 47 168 163 194 170 67 10 5 48 136 155 257 455 800 1224 783 881 848 946 593 514 336 734 847 821 886 1123 1130 740 619 566 468 423 202 125 182 426 232 240 253 228 276 524 547 624 715 781 348
509 393 143 19 24 46 51 2 0 38 91 31 49 11 6 21 30 82 146 111 39 13 0 4 65 191 324 580 1304 1155 1185 887 1138 960 971 773 395 785 476 785 371 1214 689 837 955 745 550 431 226 194 175 87 190 239 384 253 87 102 434 699 583 293 47
169 54 56 88 54 58 74 11 0 11 68 77 41 24 28 42 32 24 42 36 16 0 0 9 86 212 283 310 408 575 1002 1166 1198 989 1056 1093 924 862 966 714 844 649 404 747 466 929 569 439 334 199 201 138 73 12 85 32 37 3 0 0 1 0 0
250 140 145 101 48 9 0 4 58 78 75 48 29 5 0 10 21 11 0 0 0 0 21 12 25 20 57 90 116 163 238 357 1015 1108 993 924 999 636 738 803 426 496 891 610 894 304 654 762 739 282 105 42 0 0 0 0 1 0 0 0 0 1 0
381 286 172 213 135 22 23 36 138 170 112 29 0 0 0 0 0 0 0 0 40 81 45 35 0 0 0 0 0 19 64 141 266 624 729 1150 1069 935 474 663 807 774 230 447 451 513 571 460 558 68 16 6 1 0 0 0 1 0 0 0 0 0 0
330 235 200 182 167 44 7 0 58 102 49 3 0 0 0 0 0 0 0 0 2 60 11 0 0 0 0 0 0 0 0 10 94 164 223 250 148 102 154 209 202 428 476 575 537 671 960 767 105 61 1 7 1 0 0 1 0 0 0 0 0 0 0
591 251 175 125 18 2 2 10 16 0 7 0 0 0 0 0 0 0 0 0 0 0 0 0 0 0 0 0 0 0 0 0 0 3 11 9 9 2 11 3 4 18 41 145 322 753 1105 304 114 81 11 8 2 0 0 0 1 4 0 0 0 0 0
524 267 136 46 6 0 1 6 2 2 0 0 0 0 0 0 0 0 0 0 0 0 0 0 0 0 0 0 0 0 0 0 0 0 0 0 0 0 0 0 0 0 0 0 2 24 120 153 99 63 60 36 23 12 20 0 0 0 0 0 0 0 0
391 292 93 24 3 1 7 10 5 0 0 0 0 0 0 0 0 0 0 0 0 0 0 0 0 0 0 0 0 0 0 0 0 0 0 0 0 0 0 0 0 0 0 0 0 0 5 8 1 2 0 2 0 0 1 4 0 0 0 0 0 0 0
526 259 86 87 18 9 14 8 6 1 0 0 0 0 0 0 0 0 0 0 0 0 0 0 0 0 0 0 0 0 0 0 0 0 0 0 0 0 0 0 0 0 0 0 0 0 0 1 0 0 0 7 10 13 11 7 0 0 0 0 0 0 0
596 195 183 207 101 44 9 3 21 16 3 9 14 3 2 0 0 0 0 0 0 0 0 0 0 0 0 0 0 0 0 0 0 0 0 0 0 0 0 0 0 0 0 0 0 0 0 0 0 0 0 1 0 14 9 6 0 0 0 0 0 0 0
838 257 302 335 146 36 24 9 11 23 20 21 13 27 15 0 0 0 0 0 0 0 0 0 0 0 0 0 0 0 0 0 0 0 0 0 0 0 0 0 0 0 0 0 0 0 0 0 0 0 0 0 0 2 0 4 0 0 0 0 0 0 0
931 279 94 234 196 68 73 20 17 19 30 9 26 20 12 3 6 0 0 0 0 0 0 0 0 0 0 0 0 0 0 0 0 0 0 0 0 0 0 0 0 0 0 0 0 0 0 0 0 0 0 0 0 0 0 0 0 0 0 0 0 0 0
805 578 63 88 1 81 228 188 235 92 9 12 22 19 6 8 2 6 1 0 0 4 9 6 5 0 0 0 0 0 0 0 0 0 0 0 0 0 0 0 0 0 0 0 0 0 0 0 0 0 0 0 0 0 0 0 0 0 0 0 0 0 0
1208 811 267 71 31 241 192 132 299 147 45 13 22 6 0 15 23 6 8 13 8 4 10 40 41 14 0 4 2 0 0 0 0 0 0 0 0 0 0 0 0 0 0 0 0 0 0 0 0 0 0 0 0 0 0 0 0 0 0 0 0 0 0
1134 730 835 279 108 534 153 0 1 46 208 2 1 5 1 10 9 18 29 29 19 22 27 50 146 100 32 26 52 41 5 0 0 0 0 0 0 0 0 0 0 0 0 0 0 0 0 0 0 0 0 0 0 0 0 0 0 0 0 0 0 0 0
1456 1265 1309 558 340 624 295 77 18 125 314 161 18 8 15 7 8 21 26 36 47 67 72 187 200 158 148 124 68 44 84 89 39 10 0 0 0 0 0 0 0 0 0 0 0 0 0 0 0 0 0 0 0 0 0 0 0 4 5 0 0 0 0
1506 1394 1364 1005 160 325 64 205 106 195 303 251 198 148 61 38 37 52 158 97 126 146 188 252 301 315 363 340 324 250 187 184 196 158 73 60 2 0 0 5 0 0 0 0 0 0 0 0 0 0 0 0 0 0 0 0 1 4 4 5 2 0 0
1357 1427 1379 1065 929 191 173 478 425 254 292 71 303 304 145 228 200 246 236 198 202 248 290 340 383 420 450 506 534 477 456 446 371 307 290 246 21 142 170 42 57 28 6 2 2 0 0 0 0 0 0 0 0 0 0 0 0 0 0 3 5 1 2
1364 1482 1055 1085 1237 1194 225 160 363 303 387 306 331 321 304 321 273 300 223 207 398 388 425 534 677 865 929 633 778 704 662 591 584 597 518 404 346 329 305 280 264 180 84 17 51 18 0 0 0 0 0 0 0 0 0 0 0 2 0 8 7 5 2
1194 1240 1042 949 983 1065 1033 298 227 128 210 238 385 324 383 385 426 363 376 364 511 566 566 728 803 970 1035 1020 876 682 636 586 464 446 546 485 631 570 558 554 517 448 307 176 100 95 18 2 0 0 0 0 0 0 0 0 0 0 1 8 6 3 9
1166 990 788 723 896 850 681 1022 891 573 427 321 455 483 355 306 409 432 550 761 707 630 772 794 778 845 824 709 921 991 983 747 673 671 740 624 626 774 794 813 656 867 1105 205 0 95 91 4 85 25 21 0 0 0 0 0 0 1 15 12 6 6 5
1167 1016 1014 998 943 1091 1026 891 990 1017 1069 1112 599 439 59 230 492 599 666 863 721 824 878 864 1128 583 763 1064 1185 935 1124 1099 892 792 936 978 1020 990 992 834 894 520 388 125 0 0 0 0 0 87 226 120 6 0 0 0 0 1 0 2 22 9 0
1014 963 1042 1082 1065 1195 996 1025 936 1012 907 678 472 400 791 1002 1049 996 780 689 632 718 1144 1176 915 594 550 470 990 1052 1046 1084 905 885 622 481 756 620 988 912 924 562 220 0 0 0 0 0 0 0 0 0 0 0 0 0 0 0 0 1 0 9 0
972 849 958 864 881 864 890 869 903 575 558 624 494 542 598 619 783 542 315 373 378 370 706 648 898 584 282 0 0 378 716 787 780 440 526 292 266 566 601 794 806 694 514 396 250 40 0 0 0 0 0 0 0 0 0 0 0 0 0 2 2 1 0
1123 1059 1133 1095 1032 970 888 925 798 719 492 521 804 856 693 820 699 530 533 440 776 408 358 921 739 452 0 0 0 0 353 447 690 38 73 0 0 0 256 496 693 481 739 107 123 386 206 5 0 0 0 0 0 0 0 0 0 0 0 0 0 0 1
1159 1175 1120 991 918 774 836 781 695 680 643 529 581 680 685 874 756 716 892 809 801 387 507 719 498 0 0 0 0 0 455 729 504 350 80 159 349 186 102 101 233 403 573 400 361 598 229 137 29 0 0 0 57 0 0 0 0 0 0 0 0 0 0
1352 1393 1286 1139 1180 805 674 717 634 773 750 626 603 668 880 1341 1041 973 872 617 468 433 482 260 22 218 349 421 85 395 628 769 539 474 193 30 55 47 87 144 41 6 196 380 630 594 296 90 205 172 35 2 0 0 0 0 0 0 0 0 0 0 0
309 515 764 782 867 1073 986 836 747 1138 1067 719 866 685 418 1128 908 800 560 409 375 116 10 183 196 32 30 22 41 90 702 118 20 11 51 94 56 87 108 119 50 25 162 380 0 0 0 113 102 58 77 20 0 0 0 0 0 0 0 0 0 0 0
0 13 33 141 248 468 635 1084 1334 1228 885 835 996 1001 674 713 828 756 412 279 66 4 2 3 1 0 7 22 22 259 92 27 14 8 70 85 106 414 167 262 129 23 271 15 0 0 0 2 202 54 23 0 0 0 0 0 0 0 0 0 0 0 0
0 0 0 1 40 114 269 467 843 844 1102 1195 995 705 643 550 530 369 242 152 73 6 0 0 0 2 5 25 23 432 44 0 2 6 47 76 153 2 0 0 32 145 226 0 0 0 0 0 114 64 23 0 0 4 0 0 0 0 0 0 0 0 0
0 0 0 1 18 98 126 128 183 330 346 270 283 254 266 200 174 113 91 68 7 0 0 15 0 0 0 0 0 126 28 0 12 39 40 56 123 12 0 0 0 0 0 0 0 0 0 0 17 24 5 1 2 1 6 0 0 0 0 0 0 0 0
0 0 7 20 44 42 47 97 116 157 127 81 108 122 84 81 94 47 10 9 0 0 0 16 0 0 0 0 0 142 479 78 87 100 39 187 187 47 0 0 0 0 0 0 0 0 0 0 11 17 0 0 0 3 2 0 0 0 0 0 0 0 0
1 6 7 9 25 23 41 84 148 74 84 50 95 79 20 12 2 6 8 18 0 0 0 1 45 0 0 0 0 16 410 14 55 35 34 3 47 47 0 0 0 0 0 0 0 0 0 0 0 0 0 0 0 0 0 0 0 0 0 0 0 0 0
0 0 0 3 20 38 23 10 42 82 44 37 29 48 15 1 1 5 13 5 0 3 12 1 39 0 0 0 0 0 180 121 608 22 4 52 4 52 0 0 0 0 0 0 0 0 0 0 0 0 0 0 0 0 0 0 0 0 0 0 0 0 0
0 0 0 0 0 11 31 32 41 43 77 64 34 27 22 15 0 2 2 3 0 17 169 93 15 43 0 0 0 0 128 398 0 664 4 4 28 0 0 0 0 0 0 0 0 0 0 0 0 0 0 0 0 0 0 0 0 0 0 0 0 0 0
0 0 0 0 0 0 6 40 52 63 102 113 90 97 69 56 19 3 3 11 4 20 209 212 49 0 0 0 0 0 0 0 0 256 154 26 21 0 0 0 0 0 0 0 0 0 0 0 0 0 0 0 0 0 0 0 0 0 0 0 0 0 0
Wind_Speed
22 22 20 20 nan nan nan nan nan nan 21 nan nan nan nan nan 16 16 17 15 nan nan nan nan 18 19 18 18 17 17 17 19 16 17 18 19 16 20 20 20 22 20 20 20 19 20 20 21 22 23 25 25 24 25 25 26 23 23 23 24 25 26 25
23 20 19 nan nan nan nan nan nan nan nan nan nan nan nan nan nan nan 16 16 nan nan nan nan nan 21 21 20 20 19 18 18 18 16 16 18 20 18 18 22 18 17 18 19 21 17 18 21 24 24 26 nan 25 25 25 26 nan 24 23 24 26 28 nan
21 nan nan nan nan nan nan nan nan nan nan nan nan nan nan nan nan nan nan nan nan nan nan nan nan 22 22 22 22 21 20 19 17 17 16 15 18 18 15 16 16 18 17 19 15 18 18 17 21 24 24 24 nan nan nan nan nan nan nan nan nan nan nan
22 21 21 21 nan nan nan nan nan nan nan nan nan nan nan nan nan nan nan nan nan nan nan nan nan nan nan nan 22 23 23 21 17 18 17 18 16 19 17 15 17 17 19 17 18 23 18 18 19 22 22 nan nan nan nan nan nan nan nan nan nan nan nan
22 21 21 21 22 nan nan nan 21 21 20 nan nan nan nan nan nan nan nan nan nan nan nan nan nan nan nan nan nan nan nan 22 20 20 17 18 18 18 21 17 17 18 21 17 21 22 22 21 17 nan nan nan nan nan nan nan nan nan nan nan nan nan nan
23 22 21 21 22 nan nan nan nan 21 nan nan nan nan nan nan nan nan nan nan nan nan nan nan nan nan nan nan nan nan nan nan nan 20 19 19 18 17 18 18 17 19 21 22 23 17 20 22 20 nan nan nan nan nan nan nan nan nan nan nan nan nan nan
23 22 20 21 nan nan nan nan nan nan nan nan nan nan nan nan nan nan nan nan nan nan nan nan nan nan nan nan nan nan nan nan nan nan nan nan nan nan nan nan nan nan nan 20 23 20 18 21 24 nan nan nan nan nan nan nan nan nan nan nan nan nan nan
23 21 21 nan nan nan nan nan nan nan nan nan nan nan nan nan nan nan nan nan nan nan nan nan nan nan nan nan nan nan nan nan nan nan nan nan nan nan nan nan nan nan nan nan nan nan 23 22 nan nan nan nan nan nan nan nan nan nan nan nan nan nan nan
24 23 nan nan nan nan nan nan nan nan nan nan nan nan nan nan nan nan nan nan nan nan nan nan nan nan nan nan nan nan nan nan nan nan nan nan nan nan nan nan nan nan nan nan nan nan nan nan nan nan nan nan nan nan nan nan nan nan nan nan nan nan nan
26 25 nan nan nan nan nan nan nan nan nan nan nan nan nan nan nan nan nan nan nan nan nan nan nan nan nan nan nan nan nan nan nan nan nan nan nan nan nan nan nan nan nan nan nan nan nan nan nan nan nan nan nan nan nan nan nan nan nan nan nan nan nan
25 24 26 27 24 nan nan nan nan nan nan nan nan nan nan nan nan nan nan nan nan nan nan nan nan nan nan nan nan nan nan nan nan nan nan nan nan nan nan nan nan nan nan nan nan nan nan nan nan nan nan nan nan nan nan nan nan nan nan nan nan nan nan
22 22 24 25 24 nan nan nan nan nan nan nan nan nan nan nan nan nan nan nan nan nan nan nan nan nan nan nan nan nan nan nan nan nan nan nan nan nan nan nan nan nan nan nan nan nan nan nan nan nan nan nan nan nan nan nan nan nan nan nan nan nan nan
19 19 nan 20 20 nan nan nan nan nan nan nan nan nan nan nan nan nan nan nan nan nan nan nan nan nan nan nan nan nan nan nan nan nan nan nan nan nan nan nan nan nan nan nan nan nan nan nan nan nan nan nan nan nan nan nan nan nan nan nan nan nan nan
14 17 nan nan nan nan 21 22 21 nan nan nan nan nan nan nan nan nan nan nan nan nan nan nan nan nan nan nan nan nan nan nan nan nan nan nan nan nan nan nan nan nan nan nan nan nan nan nan nan nan nan nan nan nan nan nan nan nan nan nan nan nan nan
16 17 17 nan nan 21 22 22 22 21 nan nan nan nan nan nan nan nan nan nan nan nan nan nan nan nan nan nan nan nan nan nan nan nan nan nan nan nan nan nan nan nan nan nan nan nan nan nan nan nan nan nan nan nan nan nan nan nan nan nan nan nan nan
18 17 18 19 20 22 23 nan nan nan 21 nan nan nan nan nan nan nan nan nan nan nan nan nan 22 nan nan nan nan nan nan nan nan nan nan nan nan nan nan nan nan nan nan nan nan nan nan nan nan nan nan nan nan nan nan nan nan nan nan nan nan nan nan
18 18 19 19 20 23 24 nan nan 22 21 22 nan nan nan nan nan nan nan nan nan nan nan 23 23 23 23 24 nan nan nan nan nan nan nan nan nan nan nan nan nan nan nan nan nan nan nan nan nan nan nan nan nan nan nan nan nan nan nan nan nan nan nan
19 19 19 19 21 23 nan 24 23 21 22 20 20 20 nan nan nan nan 19 nan 22 22 23 23 23 24 23 23 23 24 23 24 24 23 nan nan nan nan nan nan nan nan nan nan nan nan nan nan nan nan nan nan nan nan nan nan nan nan nan nan nan nan nan
20 20 20 20 20 21 21 21 23 22 23 nan 21 20 18 19 18 19 19 19 20 21 22 22 24 23 24 23 23 21 19 21 20 21 22 22 nan 24 25 nan nan nan nan nan nan nan nan nan nan nan nan nan nan nan nan nan nan nan nan nan nan nan nan
23 21 20 21 20 20 20 21 23 22 23 21 22 20 19 19 19 18 19 17 20 21 21 22 23 24 24 23 21 21 18 18 20 21 23 24 25 28 28 28 29 29 nan nan nan nan nan nan nan nan nan nan nan nan nan nan nan nan nan nan nan nan nan
21 20 20 21 22 23 22 21 21 22 22 20 21 20 21 20 21 17 22 17 18 21 21 23 24 25 23 23 22 20 18 19 19 21 22 25 27 29 29 29 28 26 26 28 29 nan nan nan nan nan nan nan nan nan nan nan nan nan nan nan nan nan nan
21 21 21 23 23 23 22 21 20 19 21 21 22 23 23 22 21 20 19 22 22 23 23 24 24 26 25 22 23 21 19 18 17 19 24 26 28 30 31 31 29 26 29 35 nan nan nan nan nan nan nan nan nan nan nan nan nan nan nan nan nan nan nan
23 22 23 24 23 22 23 21 21 23 25 26 26 25 nan 23 22 22 22 24 26 28 28 28 35 36 33 31 25 23 20 19 21 21 25 27 29 31 33 33 35 42 41 37 nan nan nan nan nan nan 35 36 nan nan nan nan nan nan nan nan nan nan nan
23 23 23 24 22 22 23 23 25 29 32 31 30 28 23 24 23 23 28 32 25 27 25 32 37 34 32 30 29 24 22 23 26 28 26 23 28 32 35 34 38 42 41 nan nan nan nan nan nan nan nan nan nan nan nan nan nan nan nan nan nan nan nan
28 30 30 28 28 27 28 27 32 34 34 31 32 30 25 26 27 29 31 28 29 28 32 32 35 34 32 nan nan 28 25 28 32 37 31 28 33 27 33 32 37 36 35 36 36 nan nan nan nan nan nan nan nan nan nan nan nan nan nan nan nan nan nan
34 34 33 33 34 35 34 35 36 38 37 35 35 34 31 30 32 30 29 25 30 41 40 42 40 39 nan nan nan nan 32 37 41 nan nan nan nan nan 23 29 33 36 39 43 38 38 40 nan nan nan nan nan nan nan nan nan nan nan nan nan nan nan nan
36 36 36 35 38 36 37 37 39 38 38 38 36 31 31 32 34 30 30 29 36 39 40 40 41 nan nan nan nan nan 36 40 41 41 nan 38 36 34 36 38 40 40 44 43 40 40 41 44 nan nan nan nan nan nan nan nan nan nan nan nan nan nan nan
40 40 40 40 41 42 40 41 39 38 38 42 40 40 40 38 36 35 36 39 41 40 40 42 nan 42 39 38 nan 39 38 42 43 44 44 nan nan nan nan 50 nan nan 50 50 49 48 46 nan 48 48 nan nan nan nan nan nan nan nan nan nan nan nan nan
44 43 41 41 40 40 41 41 41 45 47 46 46 45 43 42 39 40 38 40 45 41 nan 42 44 nan nan nan nan nan 39 42 nan nan nan nan nan nan 52 53 nan nan 55 56 nan nan nan 46 45 nan nan nan nan nan nan nan nan nan nan nan nan nan nan
nan nan nan 36 36 37 38 39 40 43 44 44 46 47 46 42 41 41 42 43 nan nan nan nan nan nan nan nan nan 39 nan nan nan nan nan nan 52 55 55 52 52 nan 57 nan nan nan nan nan 44 nan nan nan nan nan nan nan nan nan nan nan nan nan nan
nan nan nan nan nan 42 42 42 41 42 42 45 45 45 42 40 41 44 45 45 nan nan nan nan nan nan nan nan nan 41 nan nan nan nan nan nan 59 nan nan nan nan 55 58 nan nan nan nan nan 44 nan nan nan nan nan nan nan nan nan nan nan nan nan nan
nan nan nan nan nan nan 46 45 45 46 44 43 43 44 43 46 49 51 nan nan nan nan nan nan nan nan nan nan nan 43 nan nan nan nan nan nan 57 nan nan nan nan nan nan nan nan nan nan nan nan nan nan nan nan nan nan nan nan nan nan nan nan nan nan
nan nan nan nan nan nan nan nan 49 49 47 nan 48 49 nan nan nan nan nan nan nan nan nan nan nan nan nan nan nan 43 42 nan nan 51 nan 52 51 nan nan nan nan nan nan nan nan nan nan nan nan nan nan nan nan nan nan nan nan nan nan nan nan nan nan
nan nan nan nan nan nan nan nan 51 nan nan nan nan nan nan nan nan nan nan nan nan nan nan nan nan nan nan nan nan nan 42 nan nan nan nan nan nan nan nan nan nan nan nan nan nan nan nan nan nan nan nan nan nan nan nan nan nan nan nan nan nan nan nan
nan nan nan nan nan nan nan nan nan nan nan nan nan nan nan nan nan nan nan nan nan nan nan nan nan nan nan nan nan nan 45 45 50 nan nan nan nan nan nan nan nan nan nan nan nan nan nan nan nan nan nan nan nan nan nan nan nan nan nan nan nan nan nan
nan nan nan nan nan nan nan nan nan nan nan nan nan nan nan nan nan nan nan nan nan nan 54 nan nan nan nan nan nan nan 47 47 nan 50 nan nan nan nan nan nan nan nan nan nan nan nan nan nan nan nan nan nan nan nan nan nan nan nan nan nan nan nan nan
nan nan nan nan nan nan nan nan nan nan 53 51 nan nan nan nan nan nan nan nan nan nan 54 56 nan nan nan nan nan nan nan nan nan 59 55 nan nan nan nan nan nan nan nan nan nan nan nan nan nan nan nan nan nan nan nan nan nan nan nan nan nan nan nan
Wind_Direction
263 263 263 258 nan nan nan nan nan nan 267 nan nan nan nan nan 256 261 260 258 nan nan nan nan 255 255 253 254 254 256 257 262 254 264 274 275 277 280 280 291 295 296 291 287 291 280 274 276 279 276 274 272 267 265 265 270 275 280 276 277 277 274 275
266 267 264 nan nan nan nan nan nan nan nan nan nan nan nan nan nan nan 266 270 nan nan nan nan nan 256 254 251 248 249 251 258 264 269 270 279 282 287 292 293 300 299 295 297 284 279 271 273 274 278 277 nan 271 266 266 269 nan 274 281 283 286 284 nan
266 nan nan nan nan nan nan nan nan nan nan nan nan nan nan nan nan nan nan nan nan nan nan nan nan 268 261 257 253 250 250 251 257 258 266 271 285 294 286 284 294 291 294 278 273 269 255 255 270 278 278 276 nan nan nan nan nan nan nan nan nan nan nan
272 269 271 274 nan nan nan nan nan nan nan nan nan nan nan nan nan nan nan nan nan nan nan nan nan nan nan nan 260 259 253 254 257 261 262 268 272 276 283 278 274 281 284 281 277 273 283 279 276 278 274 nan nan nan nan nan nan nan nan nan nan nan nan
273 268 271 274 278 nan nan nan 275 273 273 nan nan nan nan nan nan nan nan nan nan nan nan nan nan nan nan nan nan nan nan 258 258 262 263 261 262 275 279 294 293 292 288 290 277 282 286 283 285 nan nan nan nan nan nan nan nan nan nan nan nan nan nan
271 271 270 273 278 nan nan nan nan 279 nan nan nan nan nan nan nan nan nan nan nan nan nan nan nan nan nan nan nan nan nan nan nan 260 263 264 264 267 276 283 281 277 285 284 282 280 284 293 287 nan nan nan nan nan nan nan nan nan nan nan nan nan nan
265 269 268 275 nan nan nan nan nan nan nan nan nan nan nan nan nan nan nan nan nan nan nan nan nan nan nan nan nan nan nan nan nan nan nan nan nan nan nan nan nan nan nan 271 281 281 276 276 278 nan nan nan nan nan nan nan nan nan nan nan nan nan nan
257 261 265 nan nan nan nan nan nan nan nan nan nan nan nan nan nan nan nan nan nan nan nan nan nan nan nan nan nan nan nan nan nan nan nan nan nan nan nan nan nan nan nan nan nan nan 279 270 nan nan nan nan nan nan nan nan nan nan nan nan nan nan nan
246 253 nan nan nan nan nan nan nan nan nan nan nan nan nan nan nan nan nan nan nan nan nan nan nan nan nan nan nan nan nan nan nan nan nan nan nan nan nan nan nan nan nan nan nan nan nan nan nan nan nan nan nan nan nan nan nan nan nan nan nan nan nan
247 254 nan nan nan nan nan nan nan nan nan nan nan nan nan nan nan nan nan nan nan nan nan nan nan nan nan nan nan nan nan nan nan nan nan nan nan nan nan nan nan nan nan nan nan nan nan nan nan nan nan nan nan nan nan nan nan nan nan nan nan nan nan
253 260 266 273 273 nan nan nan nan nan nan nan nan nan nan nan nan nan nan nan nan nan nan nan nan nan nan nan nan nan nan nan nan nan nan nan nan nan nan nan nan nan nan nan nan nan nan nan nan nan nan nan nan nan nan nan nan nan nan nan nan nan nan
257 264 267 268 266 nan nan nan nan nan nan nan nan nan nan nan nan nan nan nan nan nan nan nan nan nan nan nan nan nan nan nan nan nan nan nan nan nan nan nan nan nan nan nan nan nan nan nan nan nan nan nan nan nan nan nan nan nan nan nan nan nan nan
258 264 nan 264 259 nan nan nan nan nan nan nan nan nan nan nan nan nan nan nan nan nan nan nan nan nan nan nan nan nan nan nan nan nan nan nan nan nan nan nan nan nan nan nan nan nan nan nan nan nan nan nan nan nan nan nan nan nan nan nan nan nan nan
256 252 nan nan nan nan 258 262 265 nan nan nan nan nan nan nan nan nan nan nan nan nan nan nan nan nan nan nan nan nan nan nan nan nan nan nan nan nan nan nan nan nan nan nan nan nan nan nan nan nan nan nan nan nan nan nan nan nan nan nan nan nan nan
239 240 252 nan nan 257 258 261 264 267 nan nan nan nan nan nan nan nan nan nan nan nan nan nan nan nan nan nan nan nan nan nan nan nan nan nan nan nan nan nan nan nan nan nan nan nan nan nan nan nan nan nan nan nan nan nan nan nan nan nan nan nan nan
235 241 252 254 255 256 259 nan nan nan 265 nan nan nan nan nan nan nan nan nan nan nan nan nan 272 nan nan nan nan nan nan nan nan nan nan nan nan nan nan nan nan nan nan nan nan nan nan nan nan nan nan nan nan nan nan nan nan nan nan nan nan nan nan
241 249 252 250 256 256 258 nan nan 261 262 265 nan nan nan nan nan nan nan nan nan nan nan 272 272 273 274 273 nan nan nan nan nan nan nan nan nan nan nan nan nan nan nan nan nan nan nan nan nan nan nan nan nan nan nan nan nan nan nan nan nan nan nan
251 252 250 248 256 259 nan 261 262 265 265 268 272 275 nan nan nan nan 279 nan 278 278 277 276 275 273 271 270 275 278 280 278 277 275 nan nan nan nan nan nan nan nan nan nan nan nan nan nan nan nan nan nan nan nan nan nan nan nan nan nan nan nan nan
251 251 248 247 254 259 263 266 268 268 270 nan 274 275 279 278 280 279 279 281 282 282 281 277 275 274 274 273 272 274 275 277 276 277 275 272 nan 269 270 nan nan nan nan nan nan nan nan nan nan nan nan nan nan nan nan nan nan nan nan nan nan nan nan
247 246 251 253 253 258 266 264 267 270 271 275 278 278 278 281 280 282 279 274 280 280 280 277 273 271 272 273 273 267 273 280 281 274 278 279 276 277 277 277 275 272 nan nan nan nan nan nan nan nan nan nan nan nan nan nan nan nan nan nan nan nan nan
253 255 255 258 260 257 248 257 261 264 271 277 279 281 284 287 284 281 284 282 284 282 279 273 268 268 268 268 265 271 276 282 287 293 292 289 287 284 282 279 278 275 272 270 271 nan nan nan nan nan nan nan nan nan nan nan nan nan nan nan nan nan nan
259 260 261 260 258 257 261 259 259 262 268 271 271 280 283 285 286 286 288 290 290 288 285 278 268 263 264 264 260 260 269 277 288 297 301 299 294 289 285 281 277 275 270 262 nan nan nan nan nan nan nan nan nan nan nan nan nan nan nan nan nan nan nan
260 263 262 260 258 257 260 263 262 258 253 254 264 272 nan 275 279 282 285 291 285 283 282 276 264 259 254 253 256 256 261 267 275 293 300 296 290 282 283 278 272 268 271 273 nan nan nan nan nan nan 263 268 nan nan nan nan nan nan nan nan nan nan nan
271 266 260 261 262 265 265 264 267 263 255 251 257 250 251 272 276 273 271 259 257 258 261 264 266 261 262 254 251 255 257 267 280 279 273 281 283 282 274 272 271 270 272 nan nan nan nan nan nan nan nan nan nan nan nan nan nan nan nan nan nan nan nan
260 269 271 270 269 269 269 272 270 269 274 276 270 268 267 271 270 269 272 282 282 288 278 263 268 267 263 nan nan 253 256 263 272 270 261 252 258 259 263 266 267 268 271 273 275 nan nan nan nan nan nan nan nan nan nan nan nan nan nan nan nan nan nan
259 261 262 263 265 263 266 268 268 271 272 271 264 257 258 270 273 270 271 277 286 279 275 271 270 272 nan nan nan nan 264 258 263 nan nan nan nan nan 264 265 268 270 271 274 272 275 279 nan nan nan nan nan nan nan nan nan nan nan nan nan nan nan nan
260 260 261 262 264 265 265 266 266 267 268 265 264 270 278 282 276 276 271 265 258 265 271 269 269 nan nan nan nan nan 269 271 272 273 nan 276 277 274 265 267 272 274 273 276 276 277 279 283 nan nan nan nan nan nan nan nan nan nan nan nan nan nan nan
262 262 263 263 265 268 266 264 266 269 270 272 273 276 274 272 274 273 272 271 275 271 268 273 nan 274 273 273 nan 268 269 273 276 279 278 nan nan nan nan 264 nan nan 274 273 268 268 275 nan 285 283 nan nan nan nan nan nan nan nan nan nan nan nan nan
266 267 267 268 268 269 272 273 274 272 269 272 273 272 272 272 271 269 267 275 276 280 nan 279 280 nan nan nan nan nan 271 270 nan nan nan nan nan nan 270 269 nan nan 269 271 nan nan nan 270 276 nan nan nan nan nan nan nan nan nan nan nan nan nan nan
nan nan nan 269 272 273 275 275 274 275 275 271 269 267 265 264 264 266 274 281 nan nan nan nan nan nan nan nan nan 268 nan nan nan nan nan nan 270 266 264 264 268 nan 272 nan nan nan nan nan 274 nan nan nan nan nan nan nan nan nan nan nan nan nan nan
nan nan nan nan nan 275 276 278 279 279 276 271 267 264 262 264 269 275 281 284 nan nan nan nan nan nan nan nan nan 269 nan nan nan nan nan nan 268 nan nan nan nan 270 271 nan nan nan nan nan 276 nan nan nan nan nan nan nan nan nan nan nan nan nan nan
nan nan nan nan nan nan 275 275 276 278 277 272 267 264 265 271 278 282 nan nan nan nan nan nan nan nan nan nan nan 272 nan nan nan nan nan nan 270 nan nan nan nan nan nan nan nan nan nan nan nan nan nan nan nan nan nan nan nan nan nan nan nan nan nan
nan nan nan nan nan nan nan nan 275 274 273 nan 270 270 nan nan nan nan nan nan nan nan nan nan nan nan nan nan nan 266 265 nan nan 269 nan 271 272 nan nan nan nan nan nan nan nan nan nan nan nan nan nan nan nan nan nan nan nan nan nan nan nan nan nan
nan nan nan nan nan nan nan nan 271 nan nan nan nan nan nan nan nan nan nan nan nan nan nan nan nan nan nan nan nan nan 263 nan nan nan nan nan nan nan nan nan nan nan nan nan nan nan nan nan nan nan nan nan nan nan nan nan nan nan nan nan nan nan nan
nan nan nan nan nan nan nan nan nan nan nan nan nan nan nan nan nan nan nan nan nan nan nan nan nan nan nan nan nan nan 260 262 262 nan nan nan nan nan nan nan nan nan nan nan nan nan nan nan nan nan nan nan nan nan nan nan nan nan nan nan nan nan nan
nan nan nan nan nan nan nan nan nan nan nan nan nan nan nan nan nan nan nan nan nan nan 273 nan nan nan nan nan nan nan 260 258 nan 264 nan nan nan nan nan nan nan nan nan nan nan nan nan nan nan nan nan nan nan nan nan nan nan nan nan nan nan nan nan
nan nan nan nan nan nan nan nan nan nan 276 275 nan nan nan nan nan nan nan nan nan nan 273 272 nan nan nan nan nan nan nan nan nan 262 262 nan nan nan nan nan nan nan nan nan nan nan nan nan nan nan nan nan nan nan nan nan nan nan nan nan nan nan nan